Location: Unspecified
(0.0000°N, 0.0000°E)
Time: 05:58:44
(UTC+00:00)

DX 1 - Pass Details

Date: 04 July 2020
Orbit: 619 x 630 km, 98.5° (Epoch: 13 August)

Event Time Altitude Azimuth Distance (km) Brightness Sun altitude
Rises 18:29:32 0° 334° (NNW) 2,887 ? -5.7°
Reaches altitude 10° 18:33:22 10° 299° (WNW) 1,988 ? -6.6°
Maximum altitude 18:34:35 11° 282° (WNW) 1,920 ? -6.9°
Drops below altitude 10° 18:35:49 10° 266° (W) 1,993 ? -7.2°
Sets 18:39:41 0° 230° (SW) 2,907 ? -8.1°
